Time,TemperatureF,DewpointF,PressureIn,WindDirection,WindDirectionDegrees,WindSpeedMPH,WindSpeedGustMPH,Humidity,HourlyPrecipIn,Conditions,Clouds,dailyrainin,SoftwareType,DateUTC
2013-07-26 00:00:00,59.6,57.2,30.11,NW,315,0.0,0.0,92,0.00,,,0.00,WUHU216HW,2013-07-26 04:00:00,
2013-07-26 00:01:00,59.6,57.2,30.11,NW,315,0.0,0.0,92,0.00,,,0.00,WUHU216HW,2013-07-26 04:01:00,
2013-07-26 00:02:00,59.6,57.2,30.11,NW,315,0.0,0.0,92,0.00,,,0.00,WUHU216HW,2013-07-26 04:02:00,
2013-07-26 00:07:00,59.6,57.2,30.11,NW,315,0.0,0.0,92,0.00,,,0.00,WUHU216HW,2013-07-26 04:07:00,
2013-07-26 00:30:00,59.8,57.4,30.09,ESE,113,0.0,0.0,92,0.00,,,0.00,WUHU216HW,2013-07-26 04:30:00,
2013-07-26 00:35:00,59.8,57.4,30.09,ESE,113,0.0,0.0,92,0.00,,,0.00,WUHU216HW,2013-07-26 04:35:00,
2013-07-26 00:59:00,60.1,57.8,30.09,WSW,248,0.0,0.0,92,0.00,,,0.00,WUHU216HW,2013-07-26 04:59:00,
2013-07-26 01:00:00,60.1,57.8,30.09,WSW,248,0.0,0.0,92,0.00,,,0.00,WUHU216HW,2013-07-26 05:00:00,
2013-07-26 01:05:00,60.1,57.8,30.09,WSW,248,0.0,0.0,92,0.00,,,0.00,WUHU216HW,2013-07-26 05:05:00,
2013-07-26 01:30:00,60.1,57.8,30.08,NW,315,0.0,0.0,92,0.00,,,0.00,WUHU216HW,2013-07-26 05:30:00,
2013-07-26 01:35:00,60.1,57.8,30.08,NW,315,0.0,0.0,92,0.00,,,0.00,WUHU216HW,2013-07-26 05:35:00,
2013-07-26 01:59:00,60.3,58.0,30.08,WSW,248,0.0,0.0,92,0.00,,,0.00,WUHU216HW,2013-07-26 05:59:00,
2013-07-26 02:00:00,60.3,58.0,30.08,WSW,248,0.0,0.0,92,0.00,,,0.00,WUHU216HW,2013-07-26 06:00:00,
2013-07-26 02:05:00,60.3,58.0,30.08,WSW,248,0.0,0.0,92,0.00,,,0.00,WUHU216HW,2013-07-26 06:05:00,
2013-07-26 02:30:00,60.3,58.0,30.07,SW,225,0.0,0.0,92,0.00,,,0.00,WUHU216HW,2013-07-26 06:30:00,
2013-07-26 02:35:00,60.3,58.0,30.07,SW,225,0.0,0.0,92,0.00,,,0.00,WUHU216HW,2013-07-26 06:35:00,
2013-07-26 02:59:00,60.5,58.1,30.06,NW,315,0.0,0.0,92,0.00,,,0.00,WUHU216HW,2013-07-26 06:59:00,
2013-07-26 03:00:00,60.5,58.1,30.06,NW,315,0.0,0.0,92,0.00,,,0.00,WUHU216HW,2013-07-26 07:00:00,
2013-07-26 03:05:00,60.5,58.1,30.06,NW,315,0.0,0.0,92,0.00,,,0.00,WUHU216HW,2013-07-26 07:05:00,
2013-07-26 03:30:00,60.5,58.1,30.05,ENE,68,0.0,0.0,92,0.00,,,0.00,WUHU216HW,2013-07-26 07:30:00,
2013-07-26 03:35:00,60.5,58.1,30.05,ENE,68,0.0,0.0,92,0.00,,,0.00,WUHU216HW,2013-07-26 07:35:00,
2013-07-26 03:59:00,60.8,58.5,30.05,NNW,338,0.0,0.0,92,0.00,,,0.00,WUHU216HW,2013-07-26 07:59:00,
2013-07-26 04:00:00,60.8,58.5,30.05,NNW,338,0.0,0.0,92,0.00,,,0.00,WUHU216HW,2013-07-26 08:00:00,
2013-07-26 04:05:00,60.8,58.5,30.05,NNW,338,0.0,0.0,92,0.00,,,0.00,WUHU216HW,2013-07-26 08:05:00,
2013-07-26 04:30:00,60.8,58.9,30.04,SW,225,2.5,2.5,93,0.00,,,0.00,WUHU216HW,2013-07-26 08:30:00,
2013-07-26 04:35:00,60.8,58.9,30.04,SW,225,2.5,2.5,93,0.00,,,0.00,WUHU216HW,2013-07-26 08:35:00,
2013-07-26 04:59:00,61.0,59.1,30.04,ENE,68,0.4,0.4,93,0.00,,,0.00,WUHU216HW,2013-07-26 08:59:00,
2013-07-26 05:00:00,61.0,59.1,30.04,ENE,68,0.4,0.4,93,0.00,,,0.00,WUHU216HW,2013-07-26 09:00:00,
2013-07-26 05:05:00,61.0,59.1,30.04,ENE,68,0.4,0.4,93,0.00,,,0.00,WUHU216HW,2013-07-26 09:05:00,
2013-07-26 05:30:00,61.2,59.2,30.03,ENE,68,0.0,0.0,93,0.00,,,0.00,WUHU216HW,2013-07-26 09:30:00,
2013-07-26 05:35:00,61.2,59.2,30.03,ENE,68,0.0,0.0,93,0.00,,,0.00,WUHU216HW,2013-07-26 09:35:00,
2013-07-26 05:59:00,61.2,59.2,30.03,East,90,0.0,0.0,93,0.00,,,0.00,WUHU216HW,2013-07-26 09:59:00,
2013-07-26 06:00:00,61.2,59.2,30.03,East,90,0.0,0.0,93,0.00,,,0.00,WUHU216HW,2013-07-26 10:00:00,
2013-07-26 06:05:00,61.2,59.2,30.03,East,90,0.0,0.0,93,0.00,,,0.00,WUHU216HW,2013-07-26 10:05:00,
2013-07-26 06:30:00,61.6,59.6,30.03,NE,45,0.4,0.4,93,0.00,,,0.00,WUHU216HW,2013-07-26 10:30:00,
2013-07-26 06:35:00,61.6,59.6,30.03,NE,45,0.4,0.4,93,0.00,,,0.00,WUHU216HW,2013-07-26 10:35:00,
2013-07-26 07:00:00,61.7,59.8,30.04,ENE,68,0.4,0.4,93,0.00,,,0.00,WUHU216HW,2013-07-26 11:00:00,
2013-07-26 07:05:00,61.7,59.8,30.04,ENE,68,0.4,0.4,93,0.00,,,0.00,WUHU216HW,2013-07-26 11:05:00,
2013-07-26 07:30:00,62.1,60.1,30.03,SW,225,0.0,0.0,93,0.00,,,0.00,WUHU216HW,2013-07-26 11:30:00,
2013-07-26 07:35:00,62.1,60.1,30.03,SW,225,0.0,0.0,93,0.00,,,0.00,WUHU216HW,2013-07-26 11:35:00,
2013-07-26 08:00:00,62.3,60.3,30.03,East,90,0.0,0.0,93,0.00,,,0.00,WUHU216HW,2013-07-26 12:00:00,
2013-07-26 08:05:00,62.3,60.3,30.03,East,90,0.0,0.0,93,0.00,,,0.00,WUHU216HW,2013-07-26 12:05:00,
2013-07-26 08:30:00,62.6,60.7,30.03,NE,45,0.7,0.7,93,0.00,,,0.00,WUHU216HW,2013-07-26 12:30:00,
2013-07-26 08:35:00,62.6,60.7,30.03,NE,45,0.7,0.7,93,0.00,,,0.00,WUHU216HW,2013-07-26 12:35:00,
2013-07-26 08:59:00,62.8,60.9,30.02,NE,45,1.3,1.3,93,0.00,,,0.00,WUHU216HW,2013-07-26 12:59:00,
2013-07-26 09:00:00,62.8,60.9,30.02,NE,45,1.3,1.3,93,0.00,,,0.00,WUHU216HW,2013-07-26 13:00:00,
2013-07-26 09:05:00,62.8,60.9,30.02,NE,45,1.3,1.3,93,0.00,,,0.00,WUHU216HW,2013-07-26 13:05:00,
2013-07-26 09:30:00,63.2,61.2,30.02,WSW,248,0.9,0.9,93,0.00,,,0.00,WUHU216HW,2013-07-26 13:30:00,
2013-07-26 09:35:00,63.2,61.2,30.02,WSW,248,0.9,0.9,93,0.00,,,0.00,WUHU216HW,2013-07-26 13:35:00,
2013-07-26 09:59:00,63.9,61.6,30.01,East,90,0.7,0.7,92,0.00,,,0.00,WUHU216HW,2013-07-26 13:59:00,
2013-07-26 10:00:00,63.9,61.6,30.01,East,90,0.7,0.7,92,0.00,,,0.00,WUHU216HW,2013-07-26 14:00:00,
2013-07-26 10:05:00,63.9,61.6,30.01,East,90,0.7,0.7,92,0.00,,,0.00,WUHU216HW,2013-07-26 14:05:00,
2013-07-26 10:30:00,64.8,62.5,30.00,WSW,248,2.2,2.2,92,0.00,,,0.00,WUHU216HW,2013-07-26 14:30:00,
2013-07-26 10:35:00,64.8,62.5,30.00,WSW,248,2.2,2.2,92,0.00,,,0.00,WUHU216HW,2013-07-26 14:35:00,
2013-07-26 10:59:00,65.0,62.0,30.01,SE,135,0.7,0.7,90,0.00,,,0.00,WUHU216HW,2013-07-26 14:59:00,
2013-07-26 11:00:00,65.0,62.0,30.01,SE,135,0.7,0.7,90,0.00,,,0.00,WUHU216HW,2013-07-26 15:00:00,
2013-07-26 11:05:00,65.0,62.0,30.01,SE,135,0.7,0.7,90,0.00,,,0.00,WUHU216HW,2013-07-26 15:05:00,
2013-07-26 11:30:00,65.5,62.6,30.00,SW,225,2.2,2.2,90,0.00,,,0.00,WUHU216HW,2013-07-26 15:30:00,
2013-07-26 11:35:00,65.5,62.6,30.00,SW,225,2.2,2.2,90,0.00,,,0.00,WUHU216HW,2013-07-26 15:35:00,
2013-07-26 11:59:00,66.2,63.5,30.00,SSE,158,0.0,0.0,91,0.00,,,0.00,WUHU216HW,2013-07-26 15:59:00,
2013-07-26 12:00:00,66.2,63.5,30.00,SSE,158,0.0,0.0,91,0.00,,,0.00,WUHU216HW,2013-07-26 16:00:00,
2013-07-26 12:05:00,66.2,63.5,30.00,SSE,158,0.0,0.0,91,0.00,,,0.00,WUHU216HW,2013-07-26 16:05:00,
2013-07-26 12:30:00,67.0,63.9,30.00,SSE,158,0.0,0.0,90,0.00,,,0.00,WUHU216HW,2013-07-26 16:30:00,
2013-07-26 12:35:00,67.0,63.9,30.00,SSE,158,0.0,0.0,90,0.00,,,0.00,WUHU216HW,2013-07-26 16:35:00,
2013-07-26 13:00:00,68.0,65.0,29.98,SSE,158,1.1,1.1,90,0.00,,,0.00,WUHU216HW,2013-07-26 17:00:00,
2013-07-26 13:05:00,68.0,65.0,29.98,SSE,158,1.1,1.1,90,0.00,,,0.00,WUHU216HW,2013-07-26 17:05:00,
2013-07-26 13:29:00,69.5,64.7,29.98,SW,225,1.3,1.3,85,0.00,,,0.00,WUHU216HW,2013-07-26 17:29:00,
2013-07-26 13:30:00,69.5,64.7,29.98,SW,225,1.3,1.3,85,0.00,,,0.00,WUHU216HW,2013-07-26 17:30:00,
2013-07-26 13:35:00,69.5,64.7,29.98,SW,225,1.3,1.3,85,0.00,,,0.00,WUHU216HW,2013-07-26 17:35:00,
2013-07-26 14:00:00,69.5,64.7,29.98,North,0,0.0,0.0,85,0.00,,,0.00,WUHU216HW,2013-07-26 18:00:00,
2013-07-26 14:05:00,69.5,64.7,29.98,North,0,0.0,0.0,85,0.00,,,0.00,WUHU216HW,2013-07-26 18:05:00,
2013-07-26 14:30:00,69.5,64.4,29.98,North,0,0.0,0.0,84,0.00,,,0.00,WUHU216HW,2013-07-26 18:30:00,
2013-07-26 14:35:00,69.5,64.4,29.98,North,0,0.0,0.0,84,0.00,,,0.00,WUHU216HW,2013-07-26 18:35:00,
2013-07-26 15:00:00,69.1,64.4,29.98,West,270,0.4,0.4,85,0.00,,,0.00,WUHU216HW,2013-07-26 19:00:00,
2013-07-26 15:05:00,69.1,64.4,29.98,West,270,0.4,0.4,85,0.00,,,0.00,WUHU216HW,2013-07-26 19:05:00,
2013-07-26 15:30:00,68.9,64.3,29.98,NW,315,2.0,2.0,85,0.00,,,0.00,WUHU216HW,2013-07-26 19:30:00,
2013-07-26 15:35:00,68.9,64.3,29.98,NW,315,2.0,2.0,85,0.00,,,0.00,WUHU216HW,2013-07-26 19:35:00,
2013-07-26 16:00:00,68.8,64.7,29.98,North,0,0.0,0.0,87,0.00,,,0.00,WUHU216HW,2013-07-26 20:00:00,
2013-07-26 16:05:00,68.8,64.7,29.98,North,0,0.0,0.0,87,0.00,,,0.00,WUHU216HW,2013-07-26 20:05:00,
2013-07-26 16:30:00,69.8,66.1,29.98,West,270,0.0,0.0,88,0.00,,,0.00,WUHU216HW,2013-07-26 20:30:00,
2013-07-26 16:35:00,69.8,66.1,29.98,West,270,0.0,0.0,88,0.00,,,0.00,WUHU216HW,2013-07-26 20:35:00,
2013-07-26 17:00:00,70.0,66.2,29.98,West,270,0.0,0.0,88,0.00,,,0.00,WUHU216HW,2013-07-26 21:00:00,
2013-07-26 17:05:00,70.0,66.2,29.98,West,270,0.0,0.0,88,0.00,,,0.00,WUHU216HW,2013-07-26 21:05:00,
2013-07-26 17:30:00,70.6,66.8,29.98,NW,315,0.0,0.0,88,0.00,,,0.00,WUHU216HW,2013-07-26 21:30:00,
2013-07-26 17:35:00,70.6,66.8,29.98,NW,315,0.0,0.0,88,0.00,,,0.00,WUHU216HW,2013-07-26 21:35:00,
2013-07-26 17:59:00,70.9,67.5,29.98,NNE,23,0.0,0.0,89,0.00,,,0.00,WUHU216HW,2013-07-26 21:59:00,
2013-07-26 18:00:00,70.9,67.5,29.98,NNE,23,0.0,0.0,89,0.00,,,0.00,WUHU216HW,2013-07-26 22:00:00,
2013-07-26 18:05:00,70.9,67.5,29.98,NNE,23,0.0,0.0,89,0.00,,,0.00,WUHU216HW,2013-07-26 22:05:00,
2013-07-26 18:30:00,71.1,67.7,29.99,NNE,23,0.0,0.0,89,0.00,,,0.00,WUHU216HW,2013-07-26 22:30:00,
2013-07-26 18:35:00,71.1,67.7,29.99,NNE,23,0.0,0.0,89,0.00,,,0.00,WUHU216HW,2013-07-26 22:35:00,
2013-07-26 18:59:00,71.3,68.2,29.99,NNE,23,0.0,0.0,90,0.00,,,0.00,WUHU216HW,2013-07-26 22:59:00,
2013-07-26 19:00:00,71.3,68.2,29.99,NNE,23,0.0,0.0,90,0.00,,,0.00,WUHU216HW,2013-07-26 23:00:00,
2013-07-26 19:05:00,71.3,68.2,29.99,NNE,23,0.0,0.0,90,0.00,,,0.00,WUHU216HW,2013-07-26 23:05:00,
2013-07-26 19:30:00,70.4,66.6,30.00,ENE,68,0.0,0.0,88,0.00,,,0.00,WUHU216HW,2013-07-26 23:30:00,
2013-07-26 19:35:00,70.4,66.6,30.00,ENE,68,0.0,0.0,88,0.00,,,0.00,WUHU216HW,2013-07-26 23:35:00,
2013-07-26 19:59:00,69.1,65.4,30.00,ENE,68,0.0,0.0,88,0.00,,,0.00,WUHU216HW,2013-07-26 23:59:00,
2013-07-26 20:00:00,69.1,65.4,30.00,ENE,68,0.0,0.0,88,0.00,,,0.00,WUHU216HW,2013-07-27 00:00:00,
2013-07-26 20:05:00,69.1,65.4,30.00,ENE,68,0.0,0.0,88,0.00,,,0.00,WUHU216HW,2013-07-27 00:05:00,
2013-07-26 20:30:00,68.0,65.0,30.01,ENE,68,0.0,0.0,90,0.00,,,0.00,WUHU216HW,2013-07-27 00:30:00,
2013-07-26 20:35:00,68.0,65.0,30.01,ENE,68,0.0,0.0,90,0.00,,,0.00,WUHU216HW,2013-07-27 00:35:00,
2013-07-26 21:00:00,67.3,63.9,30.01,ENE,68,0.0,0.0,89,0.00,,,0.00,WUHU216HW,2013-07-27 01:00:00,
2013-07-26 21:05:00,67.3,63.9,30.01,ENE,68,0.0,0.0,89,0.00,,,0.00,WUHU216HW,2013-07-27 01:05:00,
2013-07-26 21:30:00,66.6,63.5,30.02,ENE,68,0.0,0.0,90,0.00,,,0.00,WUHU216HW,2013-07-27 01:30:00,
2013-07-26 21:35:00,66.6,63.5,30.02,ENE,68,0.0,0.0,90,0.00,,,0.00,WUHU216HW,2013-07-27 01:35:00,
2013-07-26 22:00:00,65.9,62.8,30.02,ENE,68,0.0,0.0,90,0.00,,,0.00,WUHU216HW,2013-07-27 02:00:00,
2013-07-26 22:05:00,65.9,62.8,30.02,ENE,68,0.0,0.0,90,0.00,,,0.00,WUHU216HW,2013-07-27 02:05:00,
2013-07-26 22:30:00,65.2,62.2,30.02,ENE,68,0.0,0.0,90,0.00,,,0.00,WUHU216HW,2013-07-27 02:30:00,
2013-07-26 22:35:00,65.2,62.2,30.02,ENE,68,0.0,0.0,90,0.00,,,0.00,WUHU216HW,2013-07-27 02:35:00,
2013-07-26 23:00:00,64.8,61.9,30.03,ENE,68,0.0,0.0,90,0.00,,,0.00,WUHU216HW,2013-07-27 03:00:00,
2013-07-26 23:05:00,64.8,61.9,30.03,ENE,68,0.0,0.0,90,0.00,,,0.00,WUHU216HW,2013-07-27 03:05:00,
2013-07-26 23:30:00,64.3,61.4,30.03,ENE,68,0.0,0.0,90,0.00,,,0.00,WUHU216HW,2013-07-27 03:30:00,
2013-07-26 23:35:00,64.3,61.4,30.03,ENE,68,0.0,0.0,90,0.00,,,0.00,WUHU216HW,2013-07-27 03:35:00,
2013-07-26 23:59:00,63.7,60.8,30.04,ENE,68,0.0,0.0,90,0.00,,,0.00,WUHU216HW,2013-07-27 03:59:00,